Station 45001 (LLNR 16880) - MID SUPERIOR- 60 NM North Northeast Hancock, MI Image indicating link to RSS feed of recent meteorological observations for station 45001


Conditions at 45001 as of
(1:10 pm EDT)
1710 GMT on 06/12/2024:
     

Click on the graph icon in the table below to see a time series plot of the last five days of that observation.

5-day plot - Wind Direction Wind Direction (WDIR): S ( 180 deg true )
5-day plot - Wind Speed Wind Speed (WSPD): 5.8 kts
5-day plot - Wind Gust Wind Gust (GST): 5.8 kts
5-day plot - Atmospheric Pressure Atmospheric Pressure (PRES):29.74 in
5-day plot - Air Temperature Air Temperature (ATMP): 43.5 °F
5-day plot - Water Temperature Water Temperature (WTMP): 38.7 °F
5-day plot - Dew Point Dew Point (DEWP): 42.3 °F
5-day plot - Wind Chill Wind Chill (CHILL): 39.6 °F
5-day plot - Wind Speed at 10 Meters Wind Speed at 10 meters (WSPD10M): 5.8 kts
5-day plot - Wind Speed at 20 Meters Wind Speed at 20 meters (WSPD20M): 5.8 kts
5-day plot -  Wind Speed, Wind Gust and Atmospheric Pressure Combined plot of Wind Speed, Gust, and Air Pressure
Supplemental Measurements
Highest 1-minute Wind Speed
Time (EDT)5-day plot - 1-Minute Wind Speed WSPD 5-day plot - 1-Minute Wind Direction WDIR
1:09 pm 5.8 kts-
Previous observations
TIME
(EDT)
5-day plot - Wind Direction
WDIR
 
5-day plot - Wind Speed
WSPD
kts
5-day plot - Wind Gust
GST
kts
5-day plot - Wave Height
WVHT
ft
5-day plot - Dominant Wave Period
DPD
sec
5-day plot - Average Wave Period
APD
sec
5-day plot - Mean Wave Direction
MWD
 
5-day plot - Atmospheric Pressure
PRES
in
5-day plot - Pressure Tendency
PTDY
in
5-day plot - Air Temperature
ATMP
°F
5-day plot - Water Temperature
WTMP
°F
5-day plot - Dew Point
DEWP
°F
5-day plot - Salinity
SAL
psu
5-day plot - Visibility
VIS
nmi
5-day plot - Tide (above MLLW)
TIDE
ft
2024-06-12 01:00 pm S 1.9 3.9----29.73-0.02 43.3 38.7 42.6---
2024-06-12 12:50 pmSSW 1.9 3.9 1.0 42.9SSE29.74- 43.0 38.5 42.4---
2024-06-12 12:40 pm W 3.9 5.8----29.75- 42.3 38.5 41.5---
2024-06-12 12:30 pm SW 5.8 7.8----29.75- 42.8 38.7 42.1---
2024-06-12 12:20 pmSSW 7.8 11.7 1.3 42.9SSE29.75- 42.6 38.7 42.1---
2024-06-12 12:10 pmSSW 9.7 11.7 1.3-2.9SSE29.74- 42.4 38.7 41.9---
2024-06-12 12:00 pmSSW 9.7 11.7----29.75-0.01 42.6 38.5 42.1---
2024-06-12 11:50 amSSW 9.7 11.7 1.3 43.0SSE29.75- 42.8 38.7 42.3---
2024-06-12 11:40 amSSW 9.7 11.7 1.3-3.0SSE29.74- 43.2 38.7 42.6---
2024-06-12 11:30 am SW 9.7 11.7----29.75- 43.3 38.7 42.8---
2024-06-12 11:20 am S 9.7 15.5 1.3 43.1 SE29.74- 42.6 38.7 42.1---
2024-06-12 11:10 am S 7.8 9.7 1.3-3.1 SE29.73- 41.9 38.7 41.4---
2024-06-12 11:00 am S 7.8 9.7----29.74-0.02 42.1 38.7 41.5---
2024-06-12 10:50 am S 7.8 9.7 1.3 33.1SSW29.74- 41.7 38.7 41.2---
2024-06-12 10:40 amSSW 7.8 7.8 1.3-3.1SSW29.75- 41.5 38.5 41.0---
2024-06-12 10:30 amSSW 7.8 9.7----29.75- 41.9 38.7 41.4---
2024-06-12 10:20 amSSW 7.8 9.7 1.3 43.2SSE29.76- 42.3 38.5 41.7---
2024-06-12 10:10 am SW 9.7 11.7----29.76- 42.3 38.7 41.7---
2024-06-12 10:00 am SW 9.7 11.7----29.76-0.01 42.8 38.5 42.3---
2024-06-12 09:50 am SW 9.7 9.7 1.6 43.1SSE29.76- 42.8 38.5 42.3---
2024-06-12 09:40 am SW 7.8 9.7 1.6-3.1SSE29.75- 42.4 38.5 41.9---
2024-06-12 09:30 am SW 9.7 11.7----29.75- 42.4 38.5 41.9---
2024-06-12 09:20 am SW 9.7 11.7----29.75- 42.4 38.7 41.9---
2024-06-12 09:10 am SW 7.8 9.7----29.76- 41.9 38.5 41.4---
2024-06-12 09:00 am SW 7.8 9.7----29.76-0.01 42.1 38.5 41.5---
2024-06-12 08:50 am SW 9.7 9.7 1.6 43.1 SE29.76- 42.3 38.5 41.7---
2024-06-12 08:40 am SW 9.7 11.7----29.77- 42.4 38.5 41.9---
2024-06-12 08:30 am SW 11.7 13.6----29.76- 42.6 38.5 42.1---
2024-06-12 08:20 amSSW 9.7 11.7----29.75- 42.1 38.5 41.5---
2024-06-12 08:10 amSSW 11.7 11.7----29.76- 41.9 38.5 41.4---
2024-06-12 08:00 amSSW 11.7 13.6----29.76+0.00 42.1 38.5 41.5---
2024-06-12 07:50 am SW 11.7 11.7 1.6 53.4SSE29.77- 42.1 38.5 41.5---
2024-06-12 07:40 am SW 9.7 11.7----29.77- 41.9 38.5 41.4---
2024-06-12 07:30 amSSW 9.7 11.7----29.77- 41.5 38.5 41.0---
2024-06-12 07:20 am SW 9.7 9.7 1.6 53.4SSE29.77- 41.7 38.5 41.2---
2024-06-12 07:10 am SW 9.7 11.7 1.6-3.4SSE29.77- 41.7 38.5 41.2---
2024-06-12 07:00 am SW 9.7 11.7----29.77+0.01 41.9 38.5 41.4---
2024-06-12 06:50 am SW 9.7 9.7 1.6 43.3 SE29.76- 42.3 38.5 41.7---
2024-06-12 06:40 am SW 7.8 9.7----29.76- 41.9 38.5 41.4---
2024-06-12 06:30 am SW 7.8 9.7----29.76- 42.1 38.5 41.5---
2024-06-12 06:20 am SW 9.7 11.7 1.6 43.2 SE29.76- 42.1 38.5 41.5---
2024-06-12 06:10 am SW 9.7 11.7 1.6-3.2 SE29.77- 42.3 38.5 41.7---
2024-06-12 06:00 am SW 9.7 11.7----29.77+0.01 42.3 38.5 41.7---
2024-06-12 05:50 am SW 9.7 11.7 1.6 43.3 SE29.77- 42.3 38.5 41.7---
2024-06-12 05:40 am SW 9.7 9.7----29.77- 42.3 38.5 41.7---
2024-06-12 05:30 am SW 9.7 11.7----29.77- 42.4 38.5 41.9---
2024-06-12 05:20 am SW 9.7 11.7 1.6 43.5 SE29.77- 43.0 38.5 42.4---
2024-06-12 05:10 am SW 9.7 11.7 1.6-3.5 SE29.77- 42.8 38.5 42.3---
2024-06-12 05:00 am SW 9.7 9.7----29.76+0.00 42.3 38.5 41.7---
2024-06-12 04:50 am SW 7.8 9.7 1.6 43.3 SE29.76- 41.9 38.5 41.4---
2024-06-12 04:40 am SW 7.8 9.7 1.6-3.3 SE29.76- 41.9 38.5 41.4---
2024-06-12 04:30 am SW 7.8 9.7----29.76- 41.5 38.5 41.0---
2024-06-12 04:20 amSSW 5.8 7.8 1.6 43.3 SE29.75- 41.5 38.5 41.0---
2024-06-12 04:10 amSSW 5.8 7.8 1.6-3.3 SE29.75- 41.9 38.5 41.4---
2024-06-12 04:00 amSSW 5.8 7.8----29.75-0.02 42.1 38.5 41.5---
2024-06-12 03:50 amSSW 7.8 7.8 1.6 43.5 SE29.76- 41.7 38.5 41.2---
2024-06-12 03:40 amSSW 7.8 7.8----29.76- 42.1 38.5 41.5---
2024-06-12 03:30 am S 7.8 9.7----29.76- 42.1 38.5 41.5---
2024-06-12 03:20 am S 7.8 9.7 1.6 43.4 SE--- 38.5----
2024-06-12 03:10 am S 7.8 9.7----29.75- 42.1 38.5 41.5---
2024-06-12 03:00 am S 7.8 9.7----29.75+0.00 41.9 38.5 41.4---
2024-06-12 02:50 am S 7.8 9.7 2.0 43.4 SE29.75- 41.9 38.5 41.4---
2024-06-12 02:40 am S 7.8 9.7----29.75- 41.7 38.5 41.2---
2024-06-12 02:30 am S 9.7 9.7----29.75- 42.1 38.5 41.5---
2024-06-12 02:20 amSSE 9.7 9.7 2.0 43.5 SE29.75- 41.9 38.5 41.4---
2024-06-12 02:10 amSSE 9.7 11.7 2.0-3.5 SE29.75- 42.1 38.5 41.5---
2024-06-12 02:00 amSSE 9.7 11.7----29.75-0.01 42.3 38.5 41.7---
2024-06-12 01:50 amSSE 9.7 9.7 2.0 43.4 SE29.75- 41.5 38.5 41.0---
2024-06-12 01:40 amSSE 9.7 11.7 2.0-3.4 SE29.76- 41.9 38.5 41.4---
2024-06-12 01:30 amSSE 7.8 9.7----29.76- 41.7 38.5 41.2---
2024-06-12 01:20 amSSE 7.8 9.7 2.0 43.4 SE29.77- 42.3 38.5 41.5---
2024-06-12 01:10 amSSE 7.8 9.7 2.0-3.4 SE29.77- 42.4 38.5 41.9---
2024-06-12 01:00 am S 7.8 9.7----29.78+0.00 41.9 38.5 41.4---
2024-06-12 12:50 amSSE 7.8 7.8 2.0 43.3 SE29.77- 41.9 38.5 41.4---
2024-06-12 12:40 am S 7.8 9.7----29.78- 42.3 38.5 41.4---
2024-06-12 12:30 amSSE 7.8 9.7----29.78- 42.6 38.5 41.4---
2024-06-12 12:20 amSSE 7.8 11.7 2.3 43.4 SE29.78- 42.8 38.5 41.4---
2024-06-12 12:10 amSSE 11.7 13.6 2.3-3.4 SE29.77- 43.0 38.5 41.5---
2024-06-12 12:00 amSSE 11.7 15.5----29.76-0.03 43.2 38.5 41.7---
2024-06-11 11:50 pmSSE 11.7 15.5 2.0 43.3 SE29.76- 43.2 38.5 41.9---
2024-06-11 11:40 pmSSE 11.7 15.5----29.76- 43.0 38.5 41.7---
2024-06-11 11:30 pmSSE 13.6 15.5----29.76- 43.2 38.5 41.9---
2024-06-11 11:20 pmSSE 13.6 15.5 2.0 43.3ESE29.76- 43.0 38.5 41.7---
2024-06-11 11:10 pmSSE 13.6 15.5 2.0-3.3ESE29.76- 43.0 38.5 41.9---
2024-06-11 11:00 pmSSE 13.6 15.5----29.77-0.03 43.0 38.5 41.9---
2024-06-11 10:50 pmSSE 13.6 15.5 2.0 43.4 SE29.78- 43.0 38.5 42.3---
2024-06-11 10:40 pmSSE 11.7 13.6 2.0-3.4 SE29.78- 42.8 38.5 42.3---
2024-06-11 10:30 pmSSE 11.7 13.6----29.78- 42.8 38.5 42.3---
2024-06-11 10:20 pmSSE 11.7 15.5 2.0 43.3ESE29.78- 43.3 38.5 42.8---
2024-06-11 10:10 pmSSE 11.7 15.5----29.78- 43.0 38.5 42.4---
2024-06-11 10:00 pmSSE 9.7 11.7----29.78-0.02 43.0 38.5 42.4---
2024-06-11 09:50 pmSSE 9.7 11.7 2.0 43.4 SE29.78- 42.8 38.5 42.3---
2024-06-11 09:40 pmSSE 9.7 11.7 2.0-3.4 SE29.78- 43.5 38.5 43.0---
2024-06-11 09:30 pmSSE 9.7 11.7----29.78- 44.4 38.5 43.5---
2024-06-11 09:20 pm S 9.7 11.7 2.0 43.4 SE29.79- 45.0 38.5 43.7---
2024-06-11 09:10 pm S 11.7 13.6 2.0-3.4 SE29.78- 45.5 38.5 43.9---
2024-06-11 09:00 pm S 9.7 13.6----29.79-0.04 44.6 38.5 42.4---
2024-06-11 08:50 pm S 7.8 11.7 2.3 43.4 SE29.79- 44.8 38.5 42.8---
2024-06-11 08:40 pm S 9.7 11.7 2.3-3.4 SE29.79- 44.2 38.5 42.3---
2024-06-11 08:30 pmSSW 11.7 13.6----29.80- 44.1 38.5 41.4---
2024-06-11 08:20 pm S 13.6 15.5 2.0 33.1 SE29.80- 44.6 38.5 40.8---
2024-06-11 08:10 pm S 13.6 17.5 2.0-3.1 SE29.81- 43.9 38.5 40.5---
2024-06-11 08:00 pm S 11.7 15.5----29.80-0.05 42.8 38.5 39.9---
2024-06-11 07:50 pmSSE 13.6 15.5 2.0 33.0SSE29.80- 42.6 38.5 39.6---
2024-06-11 07:40 pmSSE 13.6 15.5----29.80- 42.4 38.5 39.2---
2024-06-11 07:30 pmSSE 13.6 15.5----29.79- 42.3 38.5 38.8---
2024-06-11 07:20 pmSSE 11.7 15.5 1.6 33.0SSE29.79- 42.3 38.5 38.8---
2024-06-11 07:10 pmSSE 11.7 13.6 1.6-3.0SSE29.80- 42.3 38.5 38.7---
2024-06-11 07:00 pmSSE 11.7 13.6----29.80-0.06 41.9 38.5 38.3---
2024-06-11 06:50 pmSSE 11.7 13.6 1.6 32.9SSE29.81- 41.9 38.5 38.1---
2024-06-11 06:40 pm SE 11.7 13.6----29.81- 42.3 38.5 38.1---
2024-06-11 06:30 pm SE 11.7 13.6----29.81- 42.3 38.5 38.1---
2024-06-11 06:20 pm SE 13.6 15.5 1.3 33.0SSE29.81- 42.1 38.5 38.1---
2024-06-11 06:10 pm SE 11.7 13.6 1.3-3.0SSE29.82- 41.9 38.5 37.9---
2024-06-11 06:00 pm SE 9.7 11.7----29.83-0.04 42.1 38.5 38.1---
2024-06-11 05:50 pm SE 9.7 11.7 1.3 33.0SSE29.83- 42.1 38.5 38.1---
2024-06-11 05:40 pm SE 9.7 11.7----29.83- 41.9 38.5 38.1---
2024-06-11 05:30 pm SE 7.8 9.7----29.83- 41.7 38.5 37.9---
2024-06-11 05:20 pm SE 5.8 9.7 1.3 32.9SSE29.83- 41.4 38.5 38.1---
2024-06-11 05:10 pmSSE 7.8 9.7 1.3-2.9SSE29.84- 41.2 38.5 38.1---
2024-06-11 05:00 pmSSE 7.8 11.7----29.84-0.05 41.5 38.5 38.3---
2024-06-11 04:50 pmSSE 9.7 13.6 1.6 32.9SSE29.85- 41.5 38.5 38.1---
2024-06-11 04:40 pmSSE 9.7 13.6----29.85- 41.4 38.5 37.9---
2024-06-11 04:30 pmSSE 9.7 11.7----29.86- 41.5 38.5 37.9---
2024-06-11 04:20 pm SE 11.7 11.7 1.3 32.8SSE29.86- 41.7 38.7 37.8---
2024-06-11 04:10 pm SE 11.7 13.6 1.3-2.8SSE29.86- 41.7 38.5 37.8---
2024-06-11 04:00 pm SE 11.7 13.6----29.86-0.06 41.9 38.5 37.6---
2024-06-11 03:50 pm SE 11.7 13.6 1.3 32.8 S29.86- 42.1 38.5 37.6---
2024-06-11 03:40 pm SE 9.7 11.7----29.87- 42.1 38.5 37.4---
2024-06-11 03:30 pm SE 11.7 13.6----29.87- 42.1 38.5 37.4---
2024-06-11 03:20 pmSSE 9.7 13.6 1.3 32.8 S29.87- 42.4 38.7 37.4---
2024-06-11 03:10 pm SE 11.7 13.6 1.3-2.8 S29.87- 42.6 38.7 37.4---
2024-06-11 03:00 pm SE 11.7 15.5----29.87-0.06 42.8 38.7 37.2---
2024-06-11 02:50 pm SE 11.7 15.5 1.3 32.8SSE--- 38.7----
2024-06-11 02:40 pm SE 11.7 13.6----29.88- 42.1 38.7 37.2---
2024-06-11 02:30 pm SE 11.7 13.6----29.89- 42.1 38.7 37.2---
2024-06-11 02:20 pm SE 11.7 13.6 1.3 32.7 S29.89- 42.1 38.7 37.0---
2024-06-11 02:10 pm SE 11.7 13.6 1.3-2.7 S29.89- 42.3 38.5 36.9---
2024-06-11 02:00 pm SE 11.7 13.6----29.90-0.06 42.3 38.5 36.7---
2024-06-11 01:50 pm SE 11.7 13.6 1.0 32.7 S29.90- 42.4 38.7 36.9---
2024-06-11 01:40 pm SE 11.7 13.6----29.91- 42.6 38.7 36.7---
2024-06-11 01:30 pm SE 11.7 13.6----29.91- 42.4 38.5 36.9---
2024-06-11 01:20 pm SE 9.7 11.7 1.0 32.7SSE29.91- 42.3 38.7 36.9---
2024-06-11 01:10 pm SE 9.7 13.6 1.0-2.7SSE29.91- 42.3 38.7 36.9---
2024-06-11 01:00 pm SE 9.7 11.7----29.92-0.04 42.1 38.7 36.7---
2024-06-11 12:50 pm SE 9.7 11.7 1.0 32.7SSE29.92- 42.4 38.7 36.7---

Detailed Wave Summary
for 45001 as of (12:40 pm EDT)
1640 GMT on 06/12/2024:

These wave data are displayed in rounded times.

     

Click on the graph icon in the table below to see a time series plot of the last five days of that observation.

5-day plot - Significant Wave Height Significant Wave Height (WVHT): 1.0 ft
5-day plot - Swell Height Swell Height (SwH): 0.0 ft
5-day plot - Wind Wave Height Wind Wave Height (WWH): 1.0 ft
5-day plot - Wind Wave Period Wind Wave Period (WWP): 3.7 sec
5-day plot - Wind Wave Direction Wind Wave Direction (WWD):SSE
5-day plot - Average Wave Period Average Wave Period (APD): 2.9 sec
Previous observations
TIME
(EDT)
5-day plot - Wave Height
WVHT
ft
5-day plot - Swell Height
SwH
ft
5-day plot - Swell Period
SwP
sec
5-day plot - Swell Direction
SwD
 
5-day plot - Wind Wave Height
WWH
ft
5-day plot - Wind Wave Period
WWP
sec
5-day plot - Wind Wave Direction
WWD
 
5-day plot - Wave Steepness
STEEPNESS
 
5-day plot - Average Wave Period
APD
sec
2024-06-12 12:10 pm 1.3 0.0 6.7 S 1.3 3.7 SSE N/A 2.9
2024-06-12 11:40 am 1.3 0.0-- 1.3 4.0 SSE N/A 3.0
2024-06-12 11:10 am 1.3 0.3 5.6SSW 1.3 4.0 SE N/A 3.1
2024-06-12 10:40 am 1.3 0.3 4.2SSE 1.3 3.1 SSW N/A 3.1
2024-06-12 10:10 am 1.3 0.3 7.7 N 1.3 4.0 SSE N/A 3.2
2024-06-12 09:40 am 1.6 0.7 5.6 S 1.3 4.2 SSE N/A 3.1
2024-06-12 08:40 am 1.6 0.0 6.7 S 1.6 4.3 SE N/A 3.1
2024-06-12 07:40 am 1.6 0.0 7.1 SW 1.6 4.5 SSE N/A 3.4
2024-06-12 07:10 am 1.6 0.0-- 1.6 4.5 SSE N/A 3.4
2024-06-12 06:40 am 1.6 1.0 4.5SSE 1.3 4.0 SE N/A 3.3
2024-06-12 06:10 am 1.6 0.3 5.3 SE 1.6 3.8 SE N/A 3.2
2024-06-12 05:40 am 1.6 0.3 5.3ESE 1.6 4.2 SE N/A 3.3
2024-06-12 05:10 am 1.6 0.3 6.7SSW 1.6 3.8 SE N/A 3.5
2024-06-12 04:40 am 1.6 0.7 4.3 SE 1.3 4.0 SE N/A 3.3
2024-06-12 04:10 am 1.6 0.7 4.3 SE 1.3 4.0 SE N/A 3.3
2024-06-12 03:40 am 1.6 1.0 4.3 SE 1.6 4.0 SE N/A 3.5
2024-06-12 03:10 am 1.6 1.0 7.7 W 1.6 4.0 SE N/A 3.4
2024-06-12 02:40 am 2.0 1.0 4.2 SE 1.6 3.1 SE N/A 3.4
2024-06-12 02:10 am 2.0 0.3 6.2 SE 2.0 4.0 SE N/A 3.5
2024-06-12 01:40 am 2.0 0.0-- 2.0 4.0 SE N/A 3.4
2024-06-12 01:10 am 2.0 1.0 5.0ESE 1.6 4.0 SE N/A 3.4
2024-06-12 12:40 am 2.0 1.0 6.2 SE 1.6 4.0 SE N/A 3.3
2024-06-12 12:10 am 2.3 0.0-- 2.3 4.0 SE N/A 3.4
2024-06-11 11:40 pm 2.0 0.0 7.1 NW 2.0 4.2 SE N/A 3.3
2024-06-11 11:10 pm 2.0 0.0 7.1 NW 2.0 3.8 ESE N/A 3.3
2024-06-11 10:40 pm 2.0 0.0 7.1 NW 2.0 3.8 SE N/A 3.4
2024-06-11 10:10 pm 2.0 0.0 6.7 NW 2.0 4.0 ESE N/A 3.3
2024-06-11 09:40 pm 2.0 0.3 7.1WNW 2.0 3.8 SE N/A 3.4
2024-06-11 09:10 pm 2.0 0.3 6.7 NW 2.0 4.2 SE N/A 3.4
2024-06-11 08:40 pm 2.3 0.3 5.6SSE 2.0 3.8 SE N/A 3.4
2024-06-11 08:10 pm 2.0 0.0 6.7NNE 2.0 3.3 SE N/A 3.1
2024-06-11 07:40 pm 2.0 0.0 6.2 SE 2.0 3.0 SSE N/A 3.0
2024-06-11 07:10 pm 1.6 0.0 5.9SSE 1.6 3.3 SSE N/A 3.0
2024-06-11 06:40 pm 1.6 0.0 5.9 SE 1.6 3.2 SSE N/A 2.9
2024-06-11 06:10 pm 1.3 0.0 6.7NNW 1.3 3.3 SSE N/A 3.0
2024-06-11 05:40 pm 1.3 0.0 8.3SSE 1.3 3.1 SSE N/A 3.0
2024-06-11 05:10 pm 1.3 0.3 7.1SSE 1.3 3.1 SSE N/A 2.9
2024-06-11 04:40 pm 1.6 0.0 5.6SSE 1.6 3.2 SSE N/A 2.9
2024-06-11 04:10 pm 1.3 0.0 6.7 SE 1.3 3.0 SSE N/A 2.8
2024-06-11 03:40 pm 1.3 0.0 6.7NNW 1.3 2.9 S N/A 2.8
2024-06-11 03:10 pm 1.3 0.0 6.2 N 1.3 3.1 S N/A 2.8
2024-06-11 02:40 pm 1.3 0.0 6.2NNW 1.3 2.9 SSE N/A 2.8
2024-06-11 02:10 pm 1.3 0.0 6.7SSE 1.3 2.9 S N/A 2.7
2024-06-11 01:40 pm 1.0 0.0 6.2NNW 1.0 2.9 S N/A 2.7
2024-06-11 01:10 pm 1.0 0.0 5.9SSE 1.0 2.9 SSE N/A 2.7

Plot of wave energy versus frequency (and period)